Flag for U.S.A. Weather past 2 weeks in Greensboro, North Carolina, U.S.A.

Now
73 °F

Passing clouds.


Feels Like: 72 °F
Forecast: 69 / 90 °F
Wind: 3 mph from Northwest

Location: Piedmont Triad International Airport

Current Time: Jul 7, 2015 at 9:15:10 AM

Latest Report: Jul 7, 2015 at 7:54 AM


Visibility: 10 mi

Pressure: 30.11 "Hg

Humidity: 84%

Dew point: 68 °F

Location of GreensboroLocation

Historic Weather in Greensboro — Graph

°F

Greensboro temperature yesterday

Maximum temperature yesterday: 88 °F (at 4:54 PM)
Minimum temperature yesterday: 70 °F (at 1:54 AM)
Average temperature yesterday: 77 °F

Past Weeks' High & Low Weather Summary

 TemperatureHumidityPressure
High96 °F (Jun 23, 1:54 PM)100% (Jul 3, 10:54 PM)30.11 "Hg (Jul 3, 10:54 PM)
Low60 °F (Jun 29, 4:54 AM)26% (Jun 28, 4:54 PM)29.72 "Hg (Jun 27, 4:54 PM)
Average78 °F69%29.95 "Hg
* Reported Jun 22 7:54 AM — Jul 7 7:54 AM, Greensboro, Weather by CustomWeather, © 2015

Note: Actual official high and low records may vary slightly from our data, if they occured in-between our weather recording intervals... More about our weather records

Advertising

Greensboro weather history for previous 24 hours

 ConditionsComfort  
Time TempWeatherWind HumidityBarometerVisibility
7:54 AM
Tue, Jul 7
73 °FPassing clouds.3 mph84%30.11 "Hg10 mi
6:54 AM70 °FClear.No wind93%30.09 "Hg10 mi
5:54 AM71 °FPassing clouds.No wind87%30.07 "Hg10 mi
4:54 AM71 °FPassing clouds.No wind87%30.05 "Hg10 mi
3:54 AM70 °FPassing clouds.No wind90%30.05 "Hg10 mi
2:54 AM72 °FPassing clouds.3 mph87%30.06 "Hg10 mi
1:54 AM73 °FPassing clouds.5 mph84%30.06 "Hg10 mi
12:54 AM74 °FPassing clouds.5 mph82%30.06 "Hg10 mi
11:54 PM
Mon, Jul 6
76 °FMostly cloudy.6 mph74%30.06 "Hg10 mi
10:54 PM77 °FPassing clouds.No wind66%30.06 "Hg9 mi
9:54 PM76 °FPassing clouds.9 mph69%30.06 "Hg9 mi
8:54 PM77 °FPartly sunny.No wind66%30.04 "Hg7 mi
7:54 PM79 °FPartly sunny.5 mph65%30.04 "Hg8 mi
6:54 PM82 °FPartly sunny.5 mph55%30.04 "Hg9 mi
5:54 PM85 °FBroken clouds.8 mph46%30.03 "Hg10 mi
4:54 PM88 °FBroken clouds.12 mph45%30.03 "Hg10 mi
3:54 PM87 °FBroken clouds.9 mph46%30.04 "Hg10 mi
2:54 PM87 °FBroken clouds.12 mph46%30.05 "Hg10 mi
1:54 PM84 °FBroken clouds.8 mph49%30.07 "Hg10 mi
12:54 PM84 °FMore clouds than sun.15 mph51%30.08 "Hg10 mi
11:54 AM81 °FBroken clouds.10 mph60%30.10 "Hg10 mi
10:54 AM79 °FBroken clouds.9 mph67%30.10 "Hg10 mi
9:54 AM76 °FBroken clouds.9 mph77%30.11 "Hg10 mi
Weather by CustomWeather, © 2015

See weather overviewHow to use our weather pages